Temp
16 16 17 17 18 18 19 19 19 20 21 21 21 21 22 22 23 23 24 28 29 30 30 28 28 29 30 30 26 26 26 28 32 34 34 35 35 36 35 33 32 32 30 30 31
16 16 17 17 18 18 19 19 20 20 21 21 21 21 22 22 21 22 28 29 30 30 29 29 31 32 28 24 25 24 25 29 31 35 35 35 35 35 34 32 31 31 31 31 31
16 16 17 17 18 18 19 19 20 21 21 21 22 22 22 21 21 29 29 29 30 30 29 30 30 32 22 25 22 26 27 30 31 35 37 35 35 35 33 31 31 30 30 30 30
15 15 16 17 18 18 19 20 20 21 21 21 22 22 22 20 28 29 29 29 29 30 28 30 32 33 26 26 25 26 30 30 30 32 37 35 35 36 35 32 32 31 31 30 30
14 15 16 17 18 19 19 20 21 21 21 22 22 21 21 22 27 30 29 29 29 28 29 31 32 33 28 28 28 27 29 31 32 33 36 37 36 35 33 33 33 32 32 31 30
15 16 17 17 18 19 20 21 21 21 22 22 22 21 20 25 31 31 29 29 28 28 31 32 33 35 31 29 29 30 30 33 33 35 38 36 35 34 33 33 32 32 31 31 31
14 16 17 18 19 19 20 21 22 21 22 22 21 20 24 26 31 30 29 29 30 30 31 34 36 33 33 30 32 32 30 32 33 34 31 37 34 33 33 33 32 32 32 31 31
16 16 17 18 19 20 21 21 22 22 22 22 22 19 22 31 32 31 30 31 31 32 34 35 35 33 34 34 34 31 31 31 35 33 32 31 29 34 33 32 32 32 32 32 30
16 16 17 18 19 20 21 22 22 22 22 21 20 21 27 31 31 32 32 32 33 34 34 35 34 32 32 31 32 32 30 32 34 36 32 30 25 27 31 28 32 32 31 31 30
16 17 17 18 19 20 22 23 22 22 22 19 21 23 27 31 32 32 33 33 34 33 33 33 31 29 30 29 29 31 31 33 33 32 30 28 26 26 30 28 28 32 32 31 30
16 17 17 19 20 20 23 23 21 21 23 26 27 28 32 33 33 33 33 34 33 32 29 31 28 27 29 31 33 34 33 32 33 32 30 27 27 31 28 27 26 29 31 31 31
17 17 18 20 21 22 21 21 27 29 26 28 29 31 34 33 32 32 34 32 31 29 31 30 27 31 33 34 35 34 32 33 33 32 31 28 27 27 27 25 24 26 32 32 31
17 17 18 21 23 24 23 26 29 29 26 29 30 32 32 33 31 31 32 31 31 30 30 29 31 34 35 34 35 33 30 32 31 34 32 31 29 29 28 28 26 28 29 33 32
17 17 18 21 22 23 25 28 29 30 24 30 30 31 32 32 31 34 33 32 32 30 31 31 33 35 34 34 34 32 34 34 34 33 30 32 30 28 30 27 27 28 28 34 33
17 17 18 18 20 20 27 29 29 29 24 31 31 34 32 31 32 32 34 32 30 31 32 30 32 33 34 34 36 34 35 34 35 32 32 32 30 30 31 30 27 29 31 34 33
17 17 18 18 18 26 28 28 29 25 26 31 32 31 31 31 33 33 32 32 33 31 31 31 34 34 34 36 36 36 34 34 32 31 28 31 31 32 31 32 31 31 31 35 34
18 19 17 17 23 26 27 27 24 25 32 31 30 31 30 30 31 31 31 30 28 29 28 31 32 34 36 34 35 33 31 27 28 28 28 31 33 32 35 34 34 34 35 31 34
18 22 23 23 25 25 26 24 24 30 32 33 32 30 30 31 31 31 30 28 29 29 28 28 29 32 35 33 32 30 30 26 29 28 29 31 31 33 36 36 34 34 31 30 27
19 21 23 26 25 26 24 23 27 30 33 34 33 30 29 31 31 31 29 28 30 30 28 29 29 33 34 33 33 31 30 31 29 30 28 30 32 34 35 34 33 32 31 31 27
17 19 24 26 26 27 23 23 27 29 32 32 31 31 29 30 30 29 29 32 32 32 29 30 26 32 34 34 33 31 32 29 26 28 29 29 31 31 33 33 33 32 31 31 30
18 23 28 28 28 24 23 25 29 31 33 31 30 30 31 30 30 30 30 31 33 31 32 30 28 30 32 31 30 30 29 30 27 27 27 27 28 32 31 32 32 30 30 28 29
21 23 29 29 24 24 25 27 27 30 32 31 30 30 29 30 30 29 30 29 29 30 29 27 27 25 30 32 32 32 30 29 25 28 27 27 26 26 27 28 30 30 29 28 26
18 23 28 29 24 25 27 29 30 30 30 30 30 30 31 30 30 30 28 30 30 29 27 27 25 25 28 29 32 32 31 30 28 27 27 27 25 23 25 25 25 25 27 27 25
19 23 26 27 26 26 26 26 27 31 31 31 30 30 29 29 30 27 27 29 29 26 24 26 26 25 24 25 27 29 30 31 29 26 27 27 22 22 22 24 24 24 25 24 24
19 23 25 24 25 24 25 26 27 28 30 30 28 29 28 28 28 29 28 27 29 24 28 26 25 27 26 28 29 30 31 31 30 30 28 27 22 21 21 22 24 24 24 24 23
18 21 23 22 23 24 24 25 26 28 28 28 28 29 28 28 28 28 29 26 26 26 28 27 24 27 26 28 29 29 31 32 32 32 30 28 24 22 22 25 24 24 23 22 22
20 19 20 21 22 23 24 25 26 27 27 28 29 28 28 27 27 28 28 27 26 24 24 25 24 24 24 27 27 26 29 30 31 31 29 28 24 23 23 23 23 23 22 21 22
Height
796 792 789 786 782 778 775 772 769 766 763 762 760 758 756 753 750 749 746 741 741 742 741 742 745 745 743 748 757 757 782 781 755 747 749 733 744 735 737 753 758 759 768 773 778
795 792 788 785 782 778 774 770 767 764 762 760 758 757 755 753 749 746 739 739 740 741 742 741 739 738 759 772 770 776 785 769 744 732 738 734 741 744 749 759 768 769 772 776 780
795 791 788 784 780 776 772 769 766 763 760 758 756 755 755 754 752 736 735 737 738 740 742 742 740 739 770 770 774 769 777 759 748 728 722 734 740 736 754 772 769 774 774 777 781
794 790 786 782 779 775 771 767 764 761 759 757 755 753 753 753 759 735 736 736 737 739 743 742 737 743 774 778 774 777 752 749 739 733 722 733 730 740 744 759 759 767 773 777 780
792 788 784 781 777 773 769 765 762 760 757 755 754 753 753 754 744 735 735 736 737 739 741 740 740 742 769 770 769 771 756 750 741 728 720 723 737 741 754 754 760 766 772 776 778
790 786 782 779 775 771 766 762 760 758 756 755 753 753 753 757 733 734 734 735 738 739 739 736 736 732 748 763 768 758 749 737 743 732 717 736 742 741 754 754 764 769 772 773 775
789 784 780 776 773 769 765 761 759 757 756 755 754 753 751 744 732 733 735 734 736 736 735 732 730 737 742 758 743 744 764 746 738 735 749 728 759 761 752 755 765 771 771 771 773
787 783 778 775 771 766 762 759 757 756 756 755 754 755 752 732 732 733 734 735 734 734 734 732 730 733 739 735 743 757 754 770 738 749 758 746 793 764 754 758 765 769 769 771 774
787 782 778 773 769 764 759 757 756 755 755 755 755 755 746 732 732 731 732 732 731 733 733 733 734 741 740 755 762 755 780 767 758 736 753 767 803 783 763 772 770 765 770 771 776
785 781 776 772 767 761 757 755 754 754 754 755 755 760 740 733 729 730 730 730 731 733 736 738 746 759 756 767 794 774 776 762 765 755 756 782 802 787 760 774 781 769 768 772 776
783 778 774 769 765 760 755 754 755 758 754 747 741 734 722 723 727 729 730 729 730 736 759 746 770 781 765 752 745 746 760 768 756 752 770 782 784 762 771 776 781 777 767 768 771
783 777 772 766 762 759 757 757 748 748 753 734 731 728 723 724 733 727 728 738 741 759 747 759 777 751 739 739 741 746 762 765 756 752 767 780 786 773 773 777 774 778 765 764 766
782 776 770 763 758 756 755 750 747 745 754 733 726 727 726 726 733 732 728 733 743 755 753 766 751 734 737 742 747 751 766 764 773 745 752 765 786 776 773 770 773 764 763 754 759
780 775 769 762 759 756 751 747 746 744 773 742 733 726 724 724 735 719 725 732 738 753 747 750 729 735 739 744 740 765 738 745 752 762 792 756 803 781 770 778 778 764 760 749 752
778 774 769 765 761 757 750 746 745 745 798 733 729 712 716 733 720 724 721 730 748 744 742 755 739 741 743 739 726 745 729 740 742 760 770 769 790 771 754 772 770 756 755 739 743
775 771 766 763 760 752 750 747 746 779 783 737 723 731 734 729 724 721 727 725 726 740 737 739 717 723 729 719 720 722 737 743 748 765 806 775 781 770 763 747 746 744 744 735 737
770 766 762 762 755 751 749 748 781 788 722 739 740 730 737 740 734 733 742 749 763 770 772 745 737 721 712 734 726 736 760 803 806 807 809 760 766 759 727 721 723 727 729 738 736
765 758 755 753 753 753 751 765 788 742 731 711 721 729 745 735 736 735 744 759 746 752 766 774 778 736 718 736 750 754 762 804 815 816 801 756 777 749 705 700 706 713 724 728 748
761 756 753 749 751 752 759 783 762 737 719 716 720 740 746 733 731 737 747 754 741 739 769 767 763 720 718 723 733 751 766 748 781 770 794 773 744 716 705 710 714 720 722 729 736
761 756 746 744 748 751 767 774 751 730 720 719 738 729 748 740 740 744 748 730 733 724 728 747 778 719 720 720 725 742 736 780 787 807 807 783 770 755 725 722 717 722 721 722 727
762 756 737 743 747 755 775 759 739 719 713 728 737 738 732 735 735 740 742 732 721 728 724 739 759 748 729 742 753 754 763 756 768 782 810 809 788 724 721 716 726 738 737 745 740
766 765 739 741 759 755 760 746 732 724 714 722 725 729 733 726 733 738 742 736 725 729 746 747 760 781 753 724 722 733 749 755 796 789 779 789 796 759 745 732 733 743 746 749 751
772 757 738 738 765 757 742 735 725 723 721 723 729 722 717 726 736 728 738 731 726 733 750 748 772 786 765 746 730 740 738 742 751 763 783 794 796 769 752 750 746 753 752 757 761
776 764 739 735 737 745 747 743 737 712 716 716 722 718 724 729 721 738 744 734 730 742 743 744 766 780 801 785 762 756 744 737 750 781 778 776 793 775 769 775 755 755 758 760 765
774 760 749 756 747 748 741 739 736 733 715 713 727 722 728 738 735 730 733 742 734 743 741 750 771 761 763 757 749 743 740 739 750 749 774 773 793 790 783 778 759 757 757 764 774
778 767 755 755 750 748 746 744 738 729 724 727 729 724 725 733 731 735 729 740 746 744 745 745 771 760 771 756 750 753 738 734 736 737 750 756 787 782 782 771 769 766 767 770 773
770 767 765 758 753 753 748 742 737 727 722 719 717 725 728 728 722 717 718 719 728 746 756 757 765 773 785 761 764 773 748 744 739 739 751 767 772 773 774 772 772 774 774 779 775
Wind_Speed
21 22 22 21 21 21 20 19 18 16 15 14 14 15 15 17 17 8 5 6 6 8 6 4 9 17 20 3 8 4 3 3 4 17 10 18 18 17 20 19 18 8 17 16 26
22 22 23 22 22 22 21 20 18 16 13 12 13 14 15 17 15 10 11 9 6 4 6 12 11 13 6 4 4 4 3 5 5 5 13 18 17 11 9 20 19 20 20 25 25
22 23 23 22 22 23 22 21 17 15 14 13 11 11 12 12 4 3 13 14 9 8 10 15 21 9 9 5 4 4 2 0 13 13 20 16 15 11 23 20 20 22 19 18 18
24 24 24 22 22 24 24 23 18 13 14 13 12 8 10 2 4 2 5 11 9 8 5 9 8 6 9 8 7 5 8 6 11 11 12 17 16 14 19 21 22 19 18 13 14
26 25 24 23 22 25 24 23 17 14 12 11 9 6 2 3 6 2 4 7 7 8 10 9 9 6 9 10 7 5 13 8 12 15 7 15 17 23 24 23 22 19 17 15 15
27 25 24 24 23 25 25 21 13 12 10 9 6 5 1 4 6 1 6 7 7 10 11 14 8 9 12 13 6 7 16 14 1 13 13 20 18 19 21 22 20 18 15 14 12
28 26 24 24 25 26 26 19 12 9 7 8 5 3 5 10 1 5 9 8 12 15 11 17 11 7 7 11 12 6 9 11 6 11 10 17 12 17 21 20 18 15 14 10 11
30 27 27 25 26 27 25 16 10 7 6 6 4 0 6 5 8 9 9 10 14 18 18 12 13 6 3 6 9 6 5 4 9 18 5 7 1 6 15 19 17 13 11 11 8
29 26 28 27 28 28 24 14 10 7 8 7 3 3 7 2 7 10 13 15 15 8 9 8 7 4 7 5 4 8 6 6 3 12 7 10 5 18 1 7 12 15 9 10 9
30 27 28 28 28 30 22 13 10 7 5 4 10 5 7 7 9 12 13 15 3 6 6 4 2 3 4 2 5 3 6 2 2 6 10 11 8 14 5 5 8 10 13 11 10
32 29 29 30 27 28 21 5 1 0 5 8 5 5 8 13 11 10 13 12 7 5 6 7 3 6 11 11 12 4 7 6 6 16 9 16 11 8 5 7 8 9 13 14 14
32 31 30 29 26 19 10 4 9 8 7 13 17 13 1 11 6 9 14 4 6 7 7 5 8 11 11 13 14 5 8 2 6 13 1 12 6 4 5 3 6 13 13 16 15
31 31 30 30 22 10 8 12 11 12 3 10 15 6 6 6 7 8 9 8 5 8 9 9 10 14 15 12 11 5 11 6 9 8 8 10 2 3 7 11 16 19 17 18 19
31 31 31 32 8 11 8 8 8 9 3 5 6 6 10 7 7 13 13 7 5 9 9 8 14 12 14 10 8 7 14 16 17 5 5 9 4 11 16 22 16 23 19 20 19
31 31 31 21 14 7 16 12 10 7 3 9 7 7 10 7 5 9 20 7 10 7 5 11 11 8 8 11 4 5 10 14 10 7 1 5 4 6 18 21 25 25 24 20 21
33 32 32 6 8 8 8 13 10 1 5 8 5 6 6 8 5 11 7 7 7 8 9 11 10 7 7 4 3 7 8 5 7 4 4 9 8 7 6 11 22 17 20 15 22
36 33 26 10 5 11 10 7 1 3 6 8 8 8 8 8 8 9 7 6 4 2 7 9 9 7 2 1 4 7 4 2 3 2 5 9 9 10 13 10 11 21 21 14 14
39 26 11 14 6 11 16 3 4 9 11 9 9 10 8 10 9 9 6 6 10 9 5 6 7 5 1 4 6 11 7 5 5 4 7 9 6 7 17 11 11 9 12 16 7
34 15 5 8 7 8 2 4 5 5 13 0 6 6 9 10 7 6 9 9 10 11 6 3 6 7 13 8 4 7 5 7 4 5 4 5 9 8 7 12 11 10 12 13 20
25 8 11 17 11 9 2 5 7 13 13 8 3 5 8 11 6 8 8 6 7 4 8 4 6 9 10 6 7 6 4 4 3 2 3 7 7 9 12 14 15 13 13 5 14
6 4 8 16 14 1 4 6 12 18 2 4 9 9 7 7 10 6 7 2 2 5 5 5 1 6 7 4 6 3 4 3 3 5 5 2 6 11 12 11 15 14 6 12 14
7 3 14 14 3 3 7 9 8 20 2 3 7 10 9 10 8 9 8 4 5 3 3 5 2 4 7 8 8 5 6 7 5 7 5 5 2 18 17 21 21 17 18 18 13
5 5 10 12 4 7 12 18 19 18 9 5 6 12 9 7 2 7 7 3 2 4 3 3 4 4 6 5 3 4 5 6 5 1 6 2 2 12 18 18 17 18 16 18 15
3 4 3 5 5 9 12 13 16 11 8 9 5 9 7 7 6 6 7 4 5 4 6 6 1 3 3 8 7 6 8 7 5 3 6 2 6 8 16 15 11 13 16 18 19
3 4 6 5 7 12 11 11 14 17 12 6 7 7 7 5 7 3 13 7 3 5 2 4 2 2 6 10 13 12 5 9 6 4 5 2 10 8 7 16 11 12 13 16 15
3 4 7 10 12 12 11 12 14 16 15 6 5 11 10 5 6 5 7 7 6 3 3 2 2 2 4 9 14 15 8 8 5 2 7 7 16 8 12 5 11 11 12 13 14
7 10 4 7 8 10 9 12 17 13 12 12 6 9 12 4 8 5 7 6 10 9 6 1 1 2 4 6 9 7 5 6 5 8 7 6 5 10 8 9 10 10 12 12 14
Wind_Direction
355 353 353 353 351 348 345 342 338 336 338 337 334 329 323 317 317 307 244 242 200 242 238 267 231 241 260 30 354 353 32 289 310 120 145 80 97 102 129 133 143 150 134 135 129
353 350 350 349 349 346 343 340 336 331 330 332 329 326 327 329 327 259 242 223 211 235 210 236 242 237 61 64 18 7 95 270 32 279 117 111 114 129 99 113 122 118 125 131 140
352 348 347 347 346 343 340 338 334 329 323 317 313 315 328 337 292 232 211 225 231 240 229 286 297 292 83 90 315 276 199 71 256 239 120 128 144 151 117 120 129 135 138 144 156
351 348 347 345 343 343 339 337 330 327 323 320 312 308 326 8 43 154 191 221 225 220 216 271 277 284 114 109 234 293 286 279 296 299 147 156 168 154 136 138 133 137 144 155 155
350 347 345 345 342 341 339 337 330 326 324 322 317 320 3 213 245 291 200 202 192 181 218 250 273 266 123 147 198 232 272 252 292 262 168 113 110 109 116 130 133 144 153 169 170
348 346 344 342 341 340 336 333 330 325 324 327 326 332 280 255 138 238 147 177 180 198 224 247 261 287 137 161 164 209 266 275 147 273 110 126 124 114 127 130 139 152 165 179 169
347 346 344 342 340 339 335 331 324 317 320 330 327 338 267 260 164 127 172 182 190 208 240 249 285 14 21 154 209 237 214 290 97 36 344 113 102 122 131 131 142 158 180 172 158
348 346 343 342 339 335 333 325 317 305 308 327 327 325 248 206 231 169 187 210 232 237 257 327 355 346 269 228 178 163 5 318 112 144 360 50 14 95 126 141 153 168 182 154 140
349 347 344 342 339 334 330 321 312 288 301 305 319 207 274 205 236 208 195 213 234 225 278 287 10 262 311 277 260 181 199 218 155 162 126 70 68 282 23 50 173 163 157 152 149
351 347 343 341 338 332 328 314 300 285 289 271 270 286 263 219 211 207 215 234 174 220 249 210 258 264 289 271 242 151 110 300 141 27 99 90 183 265 236 35 339 184 156 159 152
350 345 341 339 337 332 332 341 43 176 246 223 245 228 164 207 174 207 214 235 196 204 213 221 171 224 237 245 257 182 168 205 177 109 97 162 212 187 122 40 327 283 172 166 161
347 344 340 337 332 326 314 269 307 319 300 242 252 244 345 134 172 197 208 187 203 225 218 284 215 238 236 247 260 122 118 273 293 105 265 192 187 287 93 187 295 280 197 175 166
345 343 339 335 328 312 254 258 326 309 277 285 213 218 244 151 207 209 170 220 219 237 235 213 229 226 248 248 252 173 158 170 245 169 188 158 108 137 220 183 221 250 244 176 174
342 342 339 334 319 320 272 248 305 325 309 235 188 225 211 198 254 195 177 208 243 222 241 234 254 228 230 250 232 275 167 168 231 148 182 169 254 206 196 199 209 231 243 181 175
338 338 334 329 298 304 321 342 337 309 315 140 171 157 156 182 250 168 175 237 254 262 225 257 252 259 251 229 255 236 121 188 209 176 87 255 137 251 211 173 194 223 231 178 177
333 333 330 338 291 278 307 314 300 315 248 170 130 184 194 207 255 148 158 215 267 268 279 253 281 236 246 288 346 296 298 278 175 189 196 208 208 231 192 197 192 174 246 190 175
330 329 314 268 229 329 321 291 297 233 155 150 166 178 210 212 216 142 189 199 239 233 283 270 268 287 112 311 271 272 317 316 346 6 217 226 241 233 196 196 175 164 178 41 193
330 328 294 255 238 293 287 327 252 269 246 154 162 155 211 197 234 165 183 211 234 255 268 205 273 227 324 209 205 231 191 168 191 215 245 252 250 252 195 200 145 142 102 97 61
332 335 260 248 235 246 299 244 237 3 331 128 144 171 204 225 198 149 194 205 220 224 214 306 269 213 192 220 194 279 199 237 325 287 3 249 280 312 136 137 128 138 107 129 137
331 298 257 238 180 218 216 253 292 299 299 350 304 266 198 220 172 156 195 225 246 183 94 329 330 202 177 137 268 189 234 245 332 286 285 293 307 232 151 163 140 148 157 144 170
314 287 171 155 174 196 234 254 283 291 300 342 301 292 257 251 168 183 205 351 94 58 72 47 217 304 110 151 222 276 278 284 146 160 189 269 299 30 52 85 119 74 70 111 85
306 284 171 164 188 214 238 252 264 285 202 232 269 287 283 263 198 173 233 67 19 70 42 56 273 323 250 175 196 243 244 205 133 277 238 167 350 358 34 68 79 71 74 75 73
308 280 268 191 241 253 256 261 257 265 317 178 256 276 273 292 236 189 86 4 136 92 106 49 325 309 320 38 182 208 266 222 214 151 265 111 195 357 24 27 49 50 64 66 49
285 296 229 192 222 253 283 296 300 292 220 288 294 272 298 306 297 103 122 126 70 80 130 101 179 116 237 264 284 233 234 266 200 205 262 326 85 16 19 347 32 52 52 50 42
249 267 352 304 324 333 320 305 279 293 293 198 320 283 279 241 286 148 130 118 123 139 134 147 214 9 318 322 318 314 251 244 277 237 93 136 119 125 116 286 27 41 38 51 51
284 343 339 306 301 306 305 296 296 291 290 248 201 284 298 269 237 225 211 153 164 144 161 260 239 57 300 314 308 315 295 270 225 304 69 86 102 163 189 121 37 31 35 36 42
320 345 321 290 296 287 287 302 302 299 324 315 218 247 266 37 7 51 38 90 160 149 179 99 132 147 238 274 310 323 303 331 22 29 81 110 114 124 88 68 76 44 45 26 34